FW2402 Weather Reports


Display with metric or nautical units.
time (UTC)temp
F
wind
direction
speed
MPH
gust
MPH
rain 1hr
in
rain 24hr
in
rain mn
in
humidity
%
barometer
mb
20200330001515 78 293 7.0 11.0 0.00 0.01 0.01 77 1020.3
20200330001015 78 293 4.0 8.0 0.00 0.01 0.01 76 1020.1
20200330000515 78 293 4.0 8.0 0.00 0.01 0.01 76 1020.0
20200330000016 79 293 5.0 8.0 0.00 0.01 0.01 76 1020.0
20200329235515 79 293 6.0 9.0 0.00 0.01 0.01 75 1020.0
20200329235015 79 293 7.0 10.0 0.00 0.01 0.01 75 1019.8
20200329234515 80 293 6.0 9.0 0.00 0.01 0.01 74 1019.9
20200329234015 80 270 8.0 13.0 0.00 0.01 0.01 73 1019.9
20200329233515 81 293 8.0 13.0 0.00 0.01 0.01 72 1019.9
20200329233015 81 293 9.0 14.0 0.00 0.01 0.01 72 1019.9
20200329232515 82 293 10.0 14.0 0.00 0.01 0.01 70 1019.8
20200329232015 83 293 9.0 13.0 0.00 0.01 0.01 69 1019.7
20200329231515 83 293 7.0 12.0 0.00 0.01 0.01 68 1019.7
20200329231015 84 293 8.0 12.0 0.00 0.01 0.01 67 1019.6
20200329230515 84 293 7.0 13.0 0.00 0.01 0.01 67 1019.6
20200329230015 85 315 7.0 12.0 0.00 0.01 0.01 66 1019.5
20200329225515 85 293 7.0 11.0 0.00 0.01 0.01 64 1019.4
20200329225015 86 270 6.0 12.0 0.00 0.01 0.01 63 1019.3
20200329224515 88 270 8.0 12.0 0.00 0.01 0.01 60 1019.2
20200329224015 90 158 3.0 7.0 0.00 0.01 0.01 50 1019.1
20200329223515 90 158 3.0 7.0 0.00 0.01 0.01 46 1019.1
20200329223015 91 158 2.0 4.0 0.00 0.01 0.01 47 1019.0
20200329222515 91 158 2.0 5.0 0.00 0.01 0.01 46 1019.0
20200329222015 91 203 2.0 4.0 0.00 0.01 0.01 47 1019.0
20200329221515 91 203 1.0 4.0 0.00 0.01 0.01 47 1018.9
20200329221015 91 203 2.0 5.0 0.00 0.01 0.01 47 1018.9
20200329220515 91 135 3.0 5.0 0.00 0.01 0.01 44 1018.9
20200329220015 91 248 2.0 3.0 0.00 0.01 0.01 43 1018.9
20200329215515 92 203 2.0 4.0 0.00 0.01 0.01 43 1018.9
20200329215015 92 225 1.0 4.0 0.00 0.01 0.01 43 1019.0
20200329214515 92 225 2.0 6.0 0.00 0.01 0.01 44 1018.9
20200329214015 92 203 3.0 5.0 0.00 0.01 0.01 42 1018.9
20200329213515 91 270 1.0 5.0 0.00 0.01 0.01 45 1019.0
20200329213015 91 203 2.0 4.0 0.00 0.01 0.01 45 1019.0
20200329212515 91 270 2.0 4.0 0.00 0.01 0.01 46 1019.0
20200329212015 90 270 5.0 9.0 0.00 0.01 0.01 44 1019.1
20200329211515 90 293 4.0 8.0 0.00 0.01 0.01 45 1019.0
20200329211015 91 270 3.0 7.0 0.00 0.01 0.01 48 1019.0
20200329210515 92 180 2.0 4.0 0.00 0.01 0.01 46 1019.0
20200329210015 91 293 3.0 8.0 0.00 0.01 0.01 48 1019.1
20200329205515 91 248 2.0 6.0 0.00 0.01 0.01 49 1019.1
20200329205017 91 135 3.0 6.0 0.00 0.01 0.01 50 1019.1
20200329204517 90 270 4.0 9.0 0.00 0.01 0.01 51 1019.1
20200329204017 89 293 4.0 9.0 0.00 0.01 0.01 49 1019.2
20200329203517 90 270 4.0 8.0 0.00 0.01 0.01 51 1019.1
20200329203017 90 315 2.0 7.0 0.00 0.01 0.01 52 1019.2
20200329202517 91 248 2.0 4.0 0.00 0.01 0.01 52 1019.3
20200329202017 90 248 2.0 6.0 0.00 0.01 0.01 51 1019.3
20200329201517 89 270 4.0 8.0 0.00 0.01 0.01 50 1019.3
20200329201017 90 293 4.0 8.0 0.00 0.01 0.01 47 1019.3
20200329200517 90 270 3.0 7.0 0.00 0.01 0.01 50 1019.4
20200329200017 89 270 6.0 11.0 0.00 0.01 0.01 52 1019.4
20200329195517 91 293 2.0 11.0 0.00 0.01 0.01 49 1019.5
20200329195017 91 68 2.0 3.0 0.00 0.01 0.01 50 1019.5
20200329194517 90 180 2.0 5.0 0.00 0.01 0.01 53 1019.6
20200329194017 89 158 2.0 4.0 0.00 0.01 0.01 50 1019.7
20200329193517 90 90 2.0 6.0 0.00 0.01 0.01 50 1019.8
20200329193018 89 135 4.0 8.0 0.00 0.01 0.01 52 1019.9
20200329192517 89 293 2.0 4.0 0.00 0.01 0.01 52 1020.0
20200329192017 89 203 2.0 7.0 0.00 0.01 0.01 54 1020.1
20200329191517 89 135 4.0 7.0 0.00 0.01 0.01 52 1020.2
20200329191017 89 180 3.0 10.0 0.00 0.01 0.01 51 1020.2
20200329190517 89 113 4.0 12.0 0.00 0.01 0.01 53 1020.3
20200329190017 88 113 5.0 9.0 0.00 0.01 0.01 54 1020.4
20200329185517 88 135 3.0 11.0 0.00 0.01 0.01 52 1020.4
20200329185017 89 180 3.0 9.0 0.00 0.01 0.01 52 1020.5
20200329184517 89 135 4.0 8.0 0.00 0.01 0.01 54 1020.5
20200329184017 89 158 3.0 7.0 0.00 0.01 0.01 53 1020.7
20200329183517 88 113 5.0 8.0 0.00 0.01 0.01 55 1020.6
20200329183017 88 113 3.0 7.0 0.00 0.01 0.01 54 1020.7
20200329182517 88 113 4.0 8.0 0.00 0.01 0.01 56 1020.8
20200329182017 88 68 2.0 5.0 0.00 0.01 0.01 58 1020.9
20200329181517 87 180 3.0 6.0 0.00 0.01 0.01 54 1021.1
20200329181015 87 158 4.0 9.0 0.00 0.01 0.01 58 1021.1
20200329180517 87 248 3.0 10.0 0.00 0.01 0.01 55 1021.1
20200329180017 87 113 3.0 7.0 0.00 0.01 0.01 57 1021.2
20200329175517 86 113 4.0 7.0 0.00 0.01 0.01 61 1021.4
20200329175017 86 113 3.0 6.0 0.00 0.01 0.01 57 1021.6
20200329174517 86 180 4.0 8.0 0.00 0.01 0.01 60 1021.6
20200329174017 86 180 3.0 8.0 0.00 0.01 0.01 58 1021.6
20200329173517 85 270 3.0 8.0 0.00 0.01 0.01 59 1021.6
20200329173017 85 270 4.0 9.0 0.00 0.01 0.01 58 1021.7
20200329172517 86 293 2.0 5.0 0.00 0.01 0.01 57 1021.7
20200329172017 86 180 3.0 7.0 0.00 0.01 0.01 60 1021.8
20200329171517 86 180 3.0 6.0 0.00 0.01 0.01 58 1021.7
20200329171017 86 180 2.0 7.0 0.00 0.01 0.01 58 1021.8
20200329170517 86 135 2.0 6.0 0.00 0.01 0.01 58 1021.8
20200329170016 86 113 3.0 7.0 0.00 0.01 0.01 60 1021.8
20200329165517 85 270 3.0 7.0 0.00 0.01 0.01 64 1021.8
20200329165017 85 248 2.0 6.0 0.00 0.01 0.01 62 1021.8
20200329164517 85 90 4.0 9.0 0.00 0.01 0.01 62 1021.8
20200329164016 85 113 4.0 8.0 0.00 0.01 0.01 63 1021.9
20200329163517 83 113 7.0 10.0 0.00 0.01 0.01 62 1022.0
20200329163017 83 113 7.0 11.0 0.00 0.01 0.01 64 1022.0
20200329162516 83 135 5.0 12.0 0.00 0.01 0.01 64 1022.0
20200329162017 83 180 5.0 9.0 0.00 0.01 0.01 64 1022.2
20200329161516 83 180 4.0 8.0 0.00 0.01 0.01 63 1022.3
20200329161016 84 135 3.0 8.0 0.00 0.01 0.01 66 1022.1
20200329160517 83 113 4.0 7.0 0.00 0.01 0.01 66 1022.2
20200329160016 84 180 3.0 7.0 0.00 0.01 0.01 65 1022.4
20200329155516 83 90 2.0 4.0 0.00 0.01 0.01 67 1022.3
20200329155017 83 90 3.0 7.0 0.00 0.01 0.01 65 1022.4
20200329154516 82 90 4.0 8.0 0.00 0.01 0.01 68 1022.4
20200329154017 83 90 4.0 9.0 0.00 0.01 0.01 67 1022.3
20200329153516 82 113 5.0 9.0 0.00 0.01 0.01 70 1022.3
20200329153016 81 135 5.0 9.0 0.00 0.01 0.01 69 1022.4
20200329152516 82 135 5.0 11.0 0.00 0.01 0.01 67 1022.5
20200329152016 82 113 3.0 7.0 0.00 0.01 0.01 72 1022.5
20200329151517 81 158 3.0 6.0 0.00 0.01 0.01 74 1022.5
20200329151016 79 135 5.0 9.0 0.00 0.01 0.01 73 1022.4
20200329150516 80 135 3.0 10.0 0.00 0.01 0.01 72 1022.4
20200329150017 80 158 3.0 7.0 0.00 0.01 0.01 72 1022.4
20200329145517 80 135 5.0 8.0 0.00 0.01 0.01 74 1022.4
20200329145016 79 203 2.0 10.0 0.00 0.01 0.01 75 1022.3
20200329144517 79 180 3.0 7.0 0.00 0.01 0.01 75 1022.3
20200329144017 78 180 4.0 6.0 0.00 0.01 0.01 78 1022.3
20200329143517 77 135 4.0 7.0 0.00 0.01 0.01 81 1022.2
20200329143016 76 135 3.0 8.0 0.00 0.01 0.01 86 1022.2
20200329142516 75 113 3.0 8.0 0.00 0.01 0.01 91 1022.3
20200329142016 74 113 3.0 6.0 0.00 0.01 0.01 95 1022.1
20200329141516 73 113 3.0 5.0 0.00 0.01 0.01 98 1022.2
20200329141016 73 113 2.0 4.0 0.00 0.01 0.01 98 1022.3
20200329140517 73 203 1.0 3.0 0.00 0.01 0.01 98 1022.2
20200329140016 72 180 2.0 3.0 0.00 0.01 0.01 98 1022.3
20200329135517 72 135 2.0 6.0 0.00 0.01 0.01 98 1022.3
20200329135017 71 158 2.0 6.0 0.00 0.01 0.01 98 1022.1
20200329134516 71 135 3.0 5.0 0.00 0.01 0.01 98 1022.1
20200329134016 71 135 2.0 5.0 0.00 0.01 0.01 98 1022.1
20200329133516 71 180 1.0 3.0 0.00 0.01 0.01 98 1022.1
20200329133016 70 158 2.0 4.0 0.00 0.01 0.01 98 1022.1
20200329132516 70 158 2.0 4.0 0.00 0.01 0.01 98 1022.1
20200329132016 70 158 1.0 5.0 0.00 0.01 0.01 98 1022.2
20200329131516 69 158 1.0 3.0 0.00 0.01 0.01 98 1022.0
20200329131017 69 158 1.0 3.0 0.00 0.01 0.01 98 1022.1
20200329130516 69 158 1.0 3.0 0.00 0.01 0.01 98 1022.0
20200329130016 69 158 1.0 3.0 0.00 0.01 0.01 98 1021.9
20200329125516 68 0.0 1.0 0.00 0.01 0.01 98 1021.9
20200329125016 68 0.0 1.0 0.00 0.01 0.01 98 1021.8
20200329124516 68 158 1.0 4.0 0.00 0.01 0.01 98 1021.8
20200329124016 67 158 1.0 3.0 0.00 0.01 0.01 98 1021.8
20200329123516 67 0.0 1.0 0.00 0.01 0.01 98 1021.8
20200329123016 66 0.0 2.0 0.00 0.01 0.01 98 1021.8
20200329122516 66 0.0 1.0 0.00 0.01 0.01 98 1021.7
20200329122016 65 0.0 1.0 0.00 0.01 0.01 98 1021.6
20200329121516 65 0.0 1.0 0.00 0.01 0.01 98 1021.6
20200329121016 64 0.0 1.0 0.00 0.01 0.01 98 1021.6
20200329120516 64 0.0 1.0 0.00 0.01 0.01 98 1021.5
20200329120016 64 0.0 0.0 0.00 0.01 0.01 98 1021.4
20200329115516 64 0.0 1.0 0.00 0.01 0.01 98 1021.4
20200329115016 64 0.0 1.0 0.00 0.01 0.01 97 1021.3
20200329114516 63 0.0 0.0 0.00 0.01 0.01 97 1021.2
20200329114016 63 0.0 0.0 0.00 0.01 0.01 97 1021.1
20200329113516 63 0.0 0.0 0.00 0.01 0.01 97 1021.0
20200329113016 63 0.0 1.0 0.00 0.01 0.01 97 1020.8
20200329112516 63 0.0 1.0 0.00 0.01 0.01 97 1020.9
20200329112016 63 0.0 0.0 0.00 0.01 0.01 97 1020.7
20200329111516 63 0.0 0.0 0.00 0.01 0.01 97 1020.6
20200329111016 63 0.0 0.0 0.00 0.01 0.01 97 1020.5
20200329110516 63 0.0 0.0 0.00 0.01 0.01 97 1020.5
20200329110016 63 0.0 0.0 0.00 0.01 0.01 97 1020.4
20200329105516 64 0.0 0.0 0.00 0.01 0.01 97 1020.2
20200329105016 64 0.0 0.0 0.00 0.01 0.01 97 1020.2
20200329104516 64 0.0 0.0 0.00 0.01 0.01 97 1020.1
20200329104016 64 0.0 0.0 0.00 0.01 0.01 97 1020.0
20200329103516 64 0.0 1.0 0.00 0.01 0.01 97 1020.0
20200329103016 64 90 1.0 1.0 0.00 0.01 0.01 97 1019.8
20200329102516 64 0.0 1.0 0.00 0.01 0.01 97 1019.9
20200329102016 64 0.0 0.0 0.00 0.01 0.01 97 1019.7
20200329101516 64 0.0 0.0 0.00 0.01 0.01 97 1019.7
20200329101016 64 0.0 0.0 0.01 0.01 0.01 97 1019.7
20200329100516 64 0.0 0.0 0.01 0.01 0.01 97 1019.7
20200329100016 64 0.0 0.0 0.01 0.01 0.01 97 1019.6
20200329095516 64 0.0 0.0 0.01 0.01 0.01 97 1019.5
20200329095016 64 0.0 0.0 0.01 0.01 0.01 97 1019.5
20200329094516 64 0.0 0.0 0.01 0.01 0.01 97 1019.4
20200329094016 64 0.0 0.0 0.01 0.01 0.01 97 1019.4
20200329093516 64 0.0 0.0 0.01 0.01 0.01 97 1019.3
20200329093016 64 0.0 0.0 0.01 0.01 0.01 97 1019.2
20200329092516 64 0.0 1.0 0.01 0.01 0.01 97 1019.2
20200329092016 64 0.0 1.0 0.01 0.01 0.01 97 1019.1
20200329091516 64 0.0 0.0 0.01 0.01 0.01 97 1019.2
20200329091016 64 0.0 1.0 0.00 0.00 0.00 97 1019.1
20200329090516 64 0.0 1.0 0.00 0.00 0.00 97 1019.1
20200329090016 64 0.0 0.0 0.00 0.00 0.00 97 1019.1
20200329085516 64 0.0 0.0 0.00 0.00 0.00 97 1019.1
20200329085016 64 0.0 0.0 0.00 0.00 0.00 97 1019.1
20200329084516 64 0.0 1.0 0.00 0.00 0.00 97 1019.0
20200329084016 64 0.0 1.0 0.00 0.00 0.00 97 1019.2
20200329083516 64 0.0 0.0 0.00 0.00 0.00 96 1019.1
20200329083017 64 0.0 0.0 0.00 0.00 0.00 96 1019.1
20200329082516 64 0.0 0.0 0.00 0.00 0.00 96 1019.3
20200329082016 64 0.0 0.0 0.00 0.00 0.00 96 1019.2
20200329081516 64 0.0 0.0 0.00 0.00 0.00 96 1019.3
20200329081016 64 0.0 0.0 0.00 0.00 0.00 97 1019.3
20200329080516 64 0.0 0.0 0.00 0.00 0.00 96 1019.2
20200329080016 64 0.0 0.0 0.00 0.00 0.00 96 1019.2
20200329075516 64 0.0 0.0 0.00 0.00 0.00 96 1019.1
20200329075016 64 0.0 0.0 0.00 0.00 0.00 96 1019.2
20200329074516 65 0.0 0.0 0.00 0.00 0.00 96 1019.1
20200329074016 65 0.0 0.0 0.00 0.00 0.00 96 1019.1
20200329073516 65 0.0 0.0 0.00 0.00 0.00 96 1019.2
20200329073016 65 0.0 0.0 0.00 0.00 0.00 96 1019.2
20200329072516 65 0.0 0.0 0.00 0.00 0.00 96 1019.1
20200329072016 65 0.0 0.0 0.00 0.00 0.00 96 1019.1
20200329071516 65 0.0 0.0 0.00 0.00 0.00 96 1019.2
20200329071016 65 0.0 0.0 0.00 0.00 0.00 96 1019.2
20200329070516 65 0.0 0.0 0.00 0.00 0.00 96 1019.1
20200329070015 65 0.0 0.0 0.00 0.00 0.00 96 1019.1
20200329065516 65 0.0 0.0 0.00 0.00 0.00 96 1019.3
20200329065016 65 0.0 0.0 0.00 0.00 0.00 96 1019.4
20200329064516 65 0.0 0.0 0.00 0.00 0.00 96 1019.2
20200329064016 65 0.0 0.0 0.00 0.00 0.00 96 1019.2
20200329063515 65 0.0 0.0 0.00 0.00 0.00 95 1019.3
20200329063016 65 0.0 0.0 0.00 0.00 0.00 96 1019.3
20200329062516 66 0.0 0.0 0.00 0.00 0.00 96 1019.3
20200329062016 66 0.0 0.0 0.00 0.00 0.00 96 1019.3
20200329061515 66 0.0 0.0 0.00 0.00 0.00 96 1019.3
20200329061016 66 0.0 0.0 0.00 0.00 0.00 96 1019.4
20200329060515 66 0.0 0.0 0.00 0.00 0.00 96 1019.4
20200329060016 66 0.0 0.0 0.00 0.00 0.00 95 1019.4
20200329055515 66 0.0 0.0 0.00 0.00 0.00 95 1019.5
20200329055015 66 0.0 0.0 0.00 0.00 0.00 95 1019.5
20200329054516 66 0.0 0.0 0.00 0.00 0.00 95 1019.5
20200329054016 66 0.0 0.0 0.00 0.00 0.00 95 1019.6
20200329053516 66 0.0 0.0 0.00 0.00 0.00 95 1019.5
20200329053015 67 0.0 0.0 0.00 0.00 0.00 95 1019.5
20200329052516 67 0.0 0.0 0.00 0.00 0.00 95 1019.5
20200329052016 67 0.0 0.0 0.00 0.00 0.00 95 1019.4
20200329051516 67 0.0 0.0 0.00 0.00 0.00 95 1019.4
20200329051016 67 0.0 0.0 0.00 0.00 0.00 95 1019.4
20200329050516 67 0.0 0.0 0.00 0.00 0.00 95 1019.4
20200329050016 67 0.0 0.0 0.00 0.00 0.00 95 1019.4
20200329045515 67 0.0 0.0 0.00 0.00 0.00 95 1019.4
20200329045015 67 0.0 0.0 0.00 0.00 0.00 94 1019.4
20200329044515 67 0.0 0.0 0.00 0.00 0.00 94 1019.3
20200329044016 68 0.0 1.0 0.00 0.00 0.00 94 1019.3
20200329043515 68 0.0 0.0 0.00 0.00 0.00 94 1019.3
20200329043016 68 0.0 0.0 0.00 0.00 0.00 94 1019.3
20200329042515 69 0.0 0.0 0.00 0.00 0.00 95 1019.3
20200329042015 69 0.0 0.0 0.00 0.00 0.00 94 1019.2
20200329041515 69 0.0 0.0 0.00 0.00 0.00 94 1019.2
20200329041015 69 0.0 0.0 0.00 0.00 0.00 94 1019.2
20200329040515 69 0.0 0.0 0.00 0.00 0.00 94 1019.2
20200329040015 69 0.0 1.0 0.00 0.00 0.00 94 1019.3
20200329035516 69 90 1.0 1.0 0.00 0.00 0.00 93 1019.2
20200329035015 70 0.0 1.0 0.00 0.00 0.00 93 1019.3
20200329034515 70 0.0 1.0 0.00 0.00 0.00 93 1019.2
20200329034016 71 0.0 1.0 0.00 0.00 0.00 94 1019.2
20200329033516 71 90 1.0 2.0 0.00 0.00 0.00 94 1019.3
20200329033016 71 90 1.0 2.0 0.00 0.00 0.00 94 1019.1
20200329032516 71 90 2.0 2.0 0.00 0.00 0.00 94 1019.2
20200329032016 71 293 1.0 2.0 0.00 0.00 0.00 94 1019.1
20200329031515 70 0.0 1.0 0.00 0.00 0.00 93 1019.1
20200329031016 70 0.0 0.0 0.00 0.00 0.00 92 1019.1
20200329030515 70 0.0 0.0 0.00 0.00 0.00 92 1019.1
20200329030015 71 0.0 1.0 0.00 0.00 0.00 92 1019.2
20200329025516 71 0.0 0.0 0.00 0.00 0.00 92 1019.1
20200329025015 71 0.0 1.0 0.00 0.00 0.00 92 1019.1
20200329024515 72 0.0 0.0 0.00 0.00 0.00 92 1019.2
20200329024015 72 0.0 0.0 0.00 0.00 0.00 91 1019.0
20200329023515 72 0.0 0.0 0.00 0.00 0.00 91 1019.1
20200329023015 72 0.0 0.0 0.00 0.00 0.00 91 1019.1
20200329022515 72 0.0 1.0 0.00 0.00 0.00 90 1019.1
20200329022015 73 0.0 1.0 0.00 0.00 0.00 90 1019.0
20200329021516 73 0.0 1.0 0.00 0.00 0.00 89 1018.9
20200329021016 73 0.0 1.0 0.00 0.00 0.00 90 1018.9
20200329020516 73 293 1.0 1.0 0.00 0.00 0.00 89 1018.8
20200329020015 74 293 1.0 2.0 0.00 0.00 0.00 89 1018.9
20200329015515 74 293 1.0 2.0 0.00 0.00 0.00 89 1018.8
20200329015016 74 293 2.0 3.0 0.00 0.00 0.00 89 1018.8
20200329014516 74 293 2.0 4.0 0.00 0.00 0.00 88 1018.7
20200329014016 74 293 2.0 6.0 0.00 0.00 0.00 88 1018.6
20200329013515 74 293 4.0 7.0 0.00 0.00 0.00 88 1018.5
20200329013015 75 293 4.0 7.0 0.00 0.00 0.00 87 1018.5
20200329012516 75 293 4.0 7.0 0.00 0.00 0.00 87 1018.4
20200329012015 75 293 4.0 7.0 0.00 0.00 0.00 86 1018.2
20200329011516 75 270 5.0 8.0 0.00 0.00 0.00 86 1018.1
20200329011015 75 270 4.0 8.0 0.00 0.00 0.00 86 1018.0
20200329010515 76 293 5.0 8.0 0.00 0.00 0.00 85 1017.8
20200329010016 76 293 6.0 9.0 0.00 0.00 0.00 85 1017.7
20200329005515 76 293 6.0 9.0 0.00 0.00 0.00 84 1017.6
20200329005015 77 293 6.0 8.0 0.00 0.00 0.00 83 1017.6
20200329004515 77 293 6.0 10.0 0.00 0.00 0.00 83 1017.5
20200329004015 77 293 4.0 9.0 0.00 0.00 0.00 81 1017.5
20200329003516 78 293 7.0 9.0 0.00 0.00 0.00 81 1017.5
20200329003015 78 293 6.0 9.0 0.00 0.00 0.00 80 1017.5
20200329002515 78 293 6.0 9.0 0.00 0.00 0.00 79 1017.3
20200329002015 78 293 6.0 10.0 0.00 0.00 0.00 79 1017.3